When you browse on this site, cookies collect data to enhance your experience and personalize the content and advertising you see.
Visit our Privacy Policy to learn more. By continuing to use the site, you agree to this use of cookies and data.
  • In Hungary
  • List of Countries
  • For 7 days
  • Water Temperature
  • Satellite Maps
  • Weather Map
  • News
  • Weather Widgets
  • user-avatar
    Login

    Hourly Weather Chesapeake

    Today, 23 March, Saturday

    Time Temperature Precipitation Wind Pressure Humidity
    00:00 +4°C° 0 mm 7 mps 760 mmHg 53%
    01:00 +4°C° 0 mm 7 mps 761 mmHg 53%
    02:00 +3°C° 0 mm 7 mps 761 mmHg 54%
    03:00 +3°C° 0 mm 7 mps 761 mmHg 55%
    04:00 +2°C° 0 mm 6 mps 762 mmHg 56%
    05:00 +2°C° 0 mm 6 mps 762 mmHg 57%
    06:00 +2°C° 0 mm 6 mps 763 mmHg 57%
    07:00 +2°C° 0 mm 6 mps 764 mmHg 57%
    08:00 +3°C° 0 mm 6 mps 764 mmHg 52%
    09:00 +4°C° 0 mm 6 mps 765 mmHg 46%
    10:00 +5°C° 0 mm 6 mps 765 mmHg 40%
    11:00 +8°C° 0 mm 6 mps 766 mmHg 37%
    12:00 +9°C° 0 mm 6 mps 766 mmHg 34%
    13:00 +10°C° 0 mm 6 mps 766 mmHg 31%
    14:00 +11°C° 0 mm 6 mps 766 mmHg 31%
    15:00 +13°C° 0 mm 5 mps 765 mmHg 30%
    16:00 +13°C° 0 mm 5 mps 765 mmHg 30%
    17:00 +12°C° 0 mm 4 mps 766 mmHg 34%
    18:00 +11°C° 0 mm 3 mps 766 mmHg 38%
    19:00 +9°C° 0 mm 2 mps 767 mmHg 43%
    20:00 +9°C° 0 mm 2 mps 767 mmHg 45%
    21:00 +8°C° 0 mm 2 mps 768 mmHg 48%
    22:00 +8°C° 0 mm 1 mps 768 mmHg 51%
    23:00 +8°C° 0 mm 1 mps 769 mmHg 52%

    Tomorrow, 24 March, Sunday

    Time Temperature Precipitation Wind Pressure Humidity
    00:00 +7°C° 0 mm 1 mps 769 mmHg 53%
    01:00 +7°C° 0 mm 1 mps 769 mmHg 54%
    02:00 +7°C° 0 mm 1 mps 769 mmHg 54%
    03:00 +6°C° 0 mm 1 mps 769 mmHg 55%
    04:00 +6°C° 0 mm 1 mps 769 mmHg 55%
    05:00 +6°C° 0 mm 1 mps 769 mmHg 55%
    06:00 +6°C° 0 mm 1 mps 769 mmHg 55%
    07:00 +7°C° 0 mm 1 mps 770 mmHg 54%
    08:00 +9°C° 0 mm 1 mps 770 mmHg 49%
    09:00 +10°C° 0 mm 2 mps 770 mmHg 44%
    10:00 +12°C° 0 mm 3 mps 770 mmHg 39%
    11:00 +14°C° 0 mm 3 mps 769 mmHg 38%
    12:00 +15°C° 0 mm 4 mps 769 mmHg 37%
    13:00 +18°C° 0 mm 4 mps 768 mmHg 36%
    14:00 +18°C° 0 mm 4 mps 767 mmHg 37%
    15:00 +19°C° 0 mm 4 mps 766 mmHg 39%
    16:00 +19°C° 0 mm 5 mps 765 mmHg 40%
    17:00 +18°C° 0 mm 4 mps 765 mmHg 45%
    18:00 +15°C° 0 mm 4 mps 765 mmHg 49%
    19:00 +14°C° 0 mm 4 mps 765 mmHg 54%
    20:00 +14°C° 0 mm 4 mps 765 mmHg 55%
    21:00 +13°C° 0 mm 5 mps 765 mmHg 56%
    22:00 +13°C° 0 mm 5 mps 765 mmHg 57%
    23:00 +13°C° 0 mm 5 mps 765 mmHg 57%

    Day after tomorrow, 25 March, Monday

    Time Temperature Precipitation Wind Pressure Humidity
    00:00 +12°C° 0 mm 5 mps 764 mmHg 57%
    01:00 +12°C° 0 mm 5 mps 764 mmHg 57%
    02:00 +12°C° 0 mm 5 mps 764 mmHg 59%
    03:00 +12°C° 0 mm 5 mps 763 mmHg 61%
    04:00 +12°C° 0 mm 5 mps 763 mmHg 64%
    05:00 +12°C° 0.1 mm 5 mps 763 mmHg 67%
    06:00 +12°C° 0.1 mm 5 mps 763 mmHg 70%
    07:00 +12°C° 0.1 mm 5 mps 763 mmHg 73%
    08:00 +13°C° 0 mm 5 mps 762 mmHg 69%
    09:00 +15°C° 0 mm 5 mps 762 mmHg 64%
    10:00 +16°C° 0 mm 5 mps 762 mmHg 60%
    11:00 +17°C° 0.8 mm 4 mps 762 mmHg 64%
    12:00 +17°C° 0.8 mm 3 mps 761 mmHg 69%
    13:00 +16°C° 0.8 mm 2 mps 761 mmHg 73%
    14:00 +16°C° 1.2 mm 2 mps 760 mmHg 78%
    15:00 +15°C° 1.2 mm 1 mps 760 mmHg 83%
    16:00 +15°C° 1.2 mm 1 mps 759 mmHg 88%
    17:00 +14°C° 3 mm 2 mps 760 mmHg 90%
    18:00 +13°C° 3 mm 3 mps 760 mmHg 92%
    19:00 +12°C° 3 mm 5 mps 760 mmHg 94%
    20:00 +10°C° 0.8 mm 6 mps 761 mmHg 92%
    21:00 +9°C° 0.8 mm 7 mps 761 mmHg 90%
    22:00 +7°C° 0.8 mm 8 mps 762 mmHg 88%
    23:00 +6°C° 0 mm 8 mps 762 mmHg 86%

    26 March, Tuesday

    Time Temperature Precipitation Wind Pressure Humidity
    00:00 +6°C° 0 mm 8 mps 762 mmHg 85%
    01:00 +6°C° 0 mm 8 mps 763 mmHg 83%
    02:00 +5°C° 0 mm 8 mps 763 mmHg 81%
    03:00 +5°C° 0 mm 8 mps 763 mmHg 79%
    04:00 +5°C° 0 mm 8 mps 764 mmHg 76%
    05:00 +5°C° 0 mm 8 mps 765 mmHg 73%
    06:00 +4°C° 0 mm 8 mps 765 mmHg 69%
    07:00 +4°C° 0 mm 8 mps 766 mmHg 65%
    08:00 +4°C° 0 mm 8 mps 767 mmHg 63%
    09:00 +5°C° 0 mm 8 mps 767 mmHg 60%
    10:00 +5°C° 0 mm 8 mps 768 mmHg 57%
    11:00 +5°C° 0 mm 8 mps 768 mmHg 55%
    12:00 +6°C° 0 mm 8 mps 768 mmHg 52%
    13:00 +6°C° 0 mm 8 mps 768 mmHg 50%
    14:00 +6°C° 0 mm 8 mps 768 mmHg 52%
    15:00 +6°C° 0 mm 8 mps 768 mmHg 53%
    16:00 +6°C° 0 mm 8 mps 768 mmHg 54%
    17:00 +5°C° 0 mm 8 mps 768 mmHg 59%
    18:00 +4°C° 0 mm 7 mps 769 mmHg 63%
    19:00 +4°C° 0 mm 7 mps 769 mmHg 67%
    20:00 +3°C° 0 mm 7 mps 770 mmHg 65%
    21:00 +3°C° 0 mm 6 mps 770 mmHg 64%
    22:00 +2°C° 0 mm 6 mps 770 mmHg 63%
    23:00 +2°C° 0 mm 6 mps 770 mmHg 62%

    27 March, Wednesday

    Time Temperature Precipitation Wind Pressure Humidity
    00:00 +2°C° 0 mm 6 mps 770 mmHg 60%
    01:00 +2°C° 0 mm 6 mps 770 mmHg 59%
    02:00 +2°C° 0 mm 6 mps 771 mmHg 59%
    03:00 +2°C° 0 mm 6 mps 771 mmHg 59%
    04:00 +2°C° 0 mm 6 mps 771 mmHg 59%
    05:00 +3°C° 0 mm 6 mps 771 mmHg 59%
    06:00 +3°C° 0 mm 6 mps 772 mmHg 59%
    07:00 +3°C° 0 mm 6 mps 772 mmHg 59%
    08:00 +4°C° 0 mm 6 mps 773 mmHg 57%
    09:00 +5°C° 0 mm 6 mps 773 mmHg 55%
    10:00 +7°C° 0 mm 6 mps 774 mmHg 53%
    11:00 +7°C° 0 mm 6 mps 773 mmHg 53%
    12:00 +7°C° 0 mm 6 mps 773 mmHg 53%
    13:00 +7°C° 0 mm 6 mps 773 mmHg 53%
    14:00 +7°C° 0 mm 6 mps 773 mmHg 52%
    15:00 +7°C° 0 mm 6 mps 773 mmHg 51%
    16:00 +7°C° 0 mm 6 mps 773 mmHg 50%
    17:00 +5°C° 0 mm 6 mps 774 mmHg 57%
    18:00 +5°C° 0 mm 5 mps 774 mmHg 63%
    19:00 +3°C° 0 mm 5 mps 774 mmHg 69%
    20:00 +3°C° 0 mm 5 mps 775 mmHg 71%
    21:00 +3°C° 0 mm 5 mps 775 mmHg 72%
    22:00 +4°C° 0 mm 4 mps 775 mmHg 74%
    23:00 +4°C° 0 mm 4 mps 775 mmHg 73%

    28 March, Thursday

    Time Temperature Precipitation Wind Pressure Humidity
    00:00 +4°C° 0 mm 4 mps 775 mmHg 72%
    01:00 +4°C° 0 mm 4 mps 775 mmHg 71%
    02:00 +4°C° 0 mm 4 mps 775 mmHg 71%
    03:00 +4°C° 0 mm 4 mps 775 mmHg 72%
    04:00 +4°C° 0 mm 4 mps 775 mmHg 72%
    05:00 +4°C° 0 mm 4 mps 775 mmHg 72%
    06:00 +4°C° 0 mm 4 mps 776 mmHg 72%
    07:00 +4°C° 0 mm 4 mps 776 mmHg 72%
    08:00 +6°C° 0 mm 4 mps 776 mmHg 68%
    09:00 +7°C° 0 mm 5 mps 776 mmHg 63%
    10:00 +8°C° 0 mm 5 mps 776 mmHg 59%
    11:00 +9°C° 0 mm 5 mps 776 mmHg 57%
    12:00 +9°C° 0 mm 5 mps 775 mmHg 56%
    13:00 +10°C° 0 mm 5 mps 775 mmHg 54%
    14:00 +10°C° 0 mm 5 mps 774 mmHg 56%
    15:00 +10°C° 0 mm 4 mps 774 mmHg 57%
    16:00 +10°C° 0 mm 4 mps 774 mmHg 59%
    17:00 +8°C° 0 mm 4 mps 774 mmHg 64%
    18:00 +8°C° 0 mm 3 mps 774 mmHg 70%
    19:00 +7°C° 0 mm 3 mps 774 mmHg 76%
    20:00 +7°C° 0 mm 3 mps 774 mmHg 78%
    21:00 +6°C° 0 mm 2 mps 774 mmHg 81%
    22:00 +6°C° 0 mm 2 mps 775 mmHg 83%
    23:00 +6°C° 0 mm 2 mps 774 mmHg 85%
    Show more